Total_Precipitation_Accumulation
2.47 2.44 2.37 2.31 2.16 2.24 2.58 2.83 2.70 2.71 2.61 2.44 2.20 2.01 1.87 1.77 1.68 1.79 1.97 2.15 2.15 2.17 2.33 2.43 2.25 2.03 1.92 1.78 1.61 1.44 1.35 1.32 1.20 0.99 0.87 0.78 0.68 0.67 0.70 0.74 0.74 0.65 0.62
2.87 3.00 2.87 2.72 2.41 2.31 2.36 2.64 2.71 2.92 2.85 2.65 2.06 1.95 1.95 1.95 1.96 1.91 2.08 2.57 2.58 2.19 2.15 2.37 2.51 2.45 2.29 2.13 1.94 1.75 1.62 1.52 1.30 1.05 0.96 0.89 0.78 0.72 0.78 0.85 0.84 0.70 0.56
3.04 3.03 2.85 2.52 2.29 2.29 2.43 2.40 2.40 2.70 2.52 2.38 2.24 2.31 2.29 2.19 2.04 2.01 2.12 2.54 2.55 2.21 2.05 2.07 2.33 2.51 2.61 2.69 2.58 2.47 2.21 1.88 1.55 1.24 1.05 0.91 0.80 0.69 0.68 0.81 0.89 0.78 0.62
2.61 2.71 2.40 2.09 2.16 2.31 2.41 2.52 2.41 2.49 2.53 2.62 2.66 2.63 2.51 2.34 1.95 1.82 1.76 1.85 2.09 1.84 1.95 2.14 2.20 2.24 2.59 2.99 3.16 3.34 3.01 2.39 1.85 1.46 1.21 1.01 0.87 0.73 0.65 0.69 0.79 0.78 0.64
2.01 2.18 2.05 2.00 2.03 2.22 2.25 2.09 2.39 2.61 2.62 2.65 2.51 2.56 2.21 2.04 1.83 1.58 1.55 1.51 1.64 1.77 1.79 1.89 1.99 2.03 2.44 3.10 3.61 3.99 3.88 3.25 2.54 2.06 1.75 1.39 1.16 0.92 0.77 0.71 0.72 0.72 0.64
1.84 2.05 1.98 1.91 1.95 2.12 2.22 2.34 2.61 2.72 2.46 2.41 2.23 2.13 1.85 1.51 1.47 1.42 1.29 1.34 1.44 1.43 1.58 1.75 1.98 1.80 2.23 2.78 3.37 3.93 4.32 4.09 3.31 2.73 2.45 2.17 1.88 1.47 1.07 0.86 0.76 0.73 0.68
1.95 2.15 1.99 2.04 1.91 1.98 2.00 2.11 2.36 2.48 2.14 2.26 2.70 2.30 1.71 1.38 1.40 1.28 1.24 1.32 1.36 1.40 1.57 1.85 2.00 2.05 2.16 2.24 2.50 3.09 3.92 4.33 4.03 3.43 3.06 2.79 2.52 2.04 1.50 1.18 0.98 0.83 0.77
1.90 1.90 2.02 1.90 1.87 1.98 1.98 2.05 2.26 2.26 2.00 2.20 2.66 2.75 2.22 1.85 1.57 1.22 1.19 1.26 1.38 1.58 1.63 1.66 2.03 2.32 2.34 2.67 2.31 2.34 3.05 3.81 4.19 3.98 3.59 3.04 2.66 2.28 1.87 1.60 1.31 1.08 0.94
1.69 1.70 1.71 1.77 1.88 1.71 1.84 2.01 2.16 2.27 2.14 2.08 2.36 2.75 2.51 2.16 1.84 1.48 1.37 1.48 1.61 1.77 1.83 1.98 2.07 2.29 2.43 2.85 2.76 2.58 2.59 2.86 3.62 4.28 4.25 3.56 2.76 2.26 2.08 2.03 1.89 1.52 1.27
1.54 1.56 1.56 1.71 1.79 1.74 1.93 1.69 1.81 2.09 2.28 2.10 2.14 2.19 2.20 2.37 2.36 1.98 1.64 1.53 1.65 1.80 1.87 1.88 1.96 2.23 2.41 2.70 3.00 2.75 2.47 2.29 2.62 3.48 4.10 4.02 3.35 2.58 2.23 2.30 2.60 2.44 1.96
1.52 1.37 1.47 1.62 1.72 1.77 1.84 1.78 1.88 1.87 1.95 1.99 2.06 2.06 2.16 2.35 2.23 2.15 1.97 1.78 1.71 1.56 1.62 1.75 1.91 2.13 2.24 2.47 2.82 2.54 2.43 2.20 2.12 2.41 2.99 3.42 3.49 3.16 2.83 2.80 3.25 3.59 3.36
1.57 1.40 1.44 1.63 1.71 1.75 1.76 1.80 1.80 1.74 1.83 1.92 1.98 2.01 2.15 2.16 2.10 2.20 2.08 1.89 1.80 1.54 1.54 1.61 1.80 1.95 2.01 2.11 1.96 1.94 1.97 2.07 2.01 1.90 1.96 2.23 2.64 2.93 3.00 3.23 3.72 4.26 4.54
1.47 1.45 1.43 1.69 1.78 1.76 1.75 1.83 1.80 1.78 1.90 1.97 1.99 2.03 2.09 2.05 2.05 2.22 2.25 1.98 1.84 1.66 1.75 1.73 1.72 1.86 1.85 2.02 1.98 1.82 1.71 1.81 1.71 1.60 1.51 1.56 1.83 2.21 2.55 2.86 3.30 3.81 4.27
1.40 1.61 1.72 1.75 1.72 1.76 1.77 1.99 1.85 1.86 1.94 1.97 1.90 2.20 2.15 2.02 2.22 2.42 2.56 2.60 2.29 2.07 2.08 1.90 1.73 1.73 1.74 1.79 1.86 1.87 1.74 1.61 1.42 1.31 1.28 1.33 1.44 1.68 1.95 2.22 2.50 2.72 2.95
1.45 1.62 1.77 1.85 1.77 1.75 1.84 2.05 2.00 2.04 2.14 2.05 2.06 2.28 2.23 2.13 2.18 2.25 2.52 2.79 2.83 2.57 2.43 2.22 1.99 1.87 1.80 1.80 1.92 1.75 1.72 1.75 1.50 1.33 1.30 1.29 1.35 1.44 1.49 1.52 1.62 1.71 1.85
1.58 1.64 1.61 1.65 1.64 1.62 1.75 2.05 2.05 2.10 2.26 2.20 2.19 2.23 2.24 2.14 2.21 2.20 2.33 2.67 2.95 2.96 2.66 2.11 2.03 1.94 1.85 1.68 1.80 1.62 1.65 1.79 1.57 1.39 1.27 1.18 1.16 1.18 1.23 1.31 1.43 1.48 1.55
1.65 1.60 1.55 1.58 1.56 1.46 1.53 1.72 1.84 2.04 2.17 2.23 2.22 2.26 2.26 2.36 2.39 2.28 2.37 2.50 2.72 2.89 2.57 2.11 2.17 2.32 2.28 2.06 1.87 1.69 1.58 1.56 1.54 1.50 1.21 1.15 1.15 1.12 1.18 1.27 1.33 1.37 1.45
1.71 1.68 1.63 1.59 1.47 1.44 1.53 1.65 1.79 1.96 2.11 2.23 2.34 2.42 2.22 2.29 2.42 2.35 2.35 2.38 2.49 2.77 2.67 2.54 2.50 2.57 2.49 2.23 2.00 1.74 1.46 1.33 1.38 1.58 1.32 1.17 1.12 1.14 1.19 1.21 1.17 1.16 1.17
1.68 1.72 1.73 1.66 1.60 1.63 1.71 1.76 1.82 1.96 2.09 2.17 2.26 2.25 2.20 2.33 2.24 2.27 2.35 2.33 2.33 2.40 2.52 2.50 2.39 2.48 2.41 2.21 2.03 1.77 1.52 1.48 1.35 1.37 1.30 1.20 1.15 1.13 1.14 1.10 1.05 1.03 1.05
1.53 1.56 1.56 1.65 1.68 1.72 1.75 1.74 1.74 1.79 1.87 1.94 1.93 1.84 1.78 1.85 1.93 2.07 2.07 2.08 2.16 2.24 2.33 2.28 2.26 2.35 2.37 2.41 2.25 1.95 1.78 1.61 1.44 1.24 1.24 1.22 1.22 1.17 1.13 1.06 0.97 0.95 0.99
1.42 1.59 1.62 1.69 1.74 1.72 1.62 1.67 1.67 1.59 1.76 1.73 1.60 1.55 1.56 1.66 1.69 1.77 1.70 1.78 1.94 2.02 2.08 2.17 2.26 2.43 2.45 2.57 2.44 2.16 2.02 1.86 1.59 1.35 1.30 1.21 1.19 1.14 1.13 1.13 1.07 0.98 0.92
1.49 1.58 1.63 1.73 1.77 1.63 1.66 1.69 1.69 1.68 1.72 1.69 1.63 1.56 1.45 1.45 1.43 1.47 1.51 1.56 1.69 1.82 1.98 2.15 2.22 2.31 2.38 2.36 2.32 2.20 2.09 1.91 1.63 1.47 1.57 1.54 1.34 1.32 1.43 1.38 1.29 1.04 0.89
1.57 1.64 1.77 1.82 1.79 1.81 1.71 1.58 1.60 1.58 1.64 1.67 1.69 1.68 1.41 1.24 1.34 1.33 1.45 1.43 1.40 1.46 1.56 1.72 1.84 1.98 2.17 2.26 2.35 2.27 2.25 2.13 1.86 1.62 1.55 1.44 1.35 1.39 1.57 1.71 1.46 1.05 0.94
1.74 1.85 1.87 1.76 1.70 1.73 1.65 1.41 1.34 1.26 1.37 1.49 1.56 1.63 1.61 1.51 1.47 1.48 1.53 1.53 1.46 1.44 1.52 1.52 1.57 1.78 2.10 2.38 2.42 2.38 2.40 2.28 2.01 1.67 1.56 1.46 1.32 1.30 1.19 1.20 1.27 1.03 0.87
1.96 2.02 2.04 1.98 1.85 1.81 1.62 1.31 1.20 1.15 1.30 1.38 1.44 1.44 1.43 1.34 1.35 1.27 1.30 1.37 1.39 1.35 1.34 1.35 1.37 1.50 1.76 2.12 2.31 2.34 2.42 2.33 2.11 1.80 1.59 1.55 1.34 1.26 1.16 1.04 1.07 1.13 0.97
2.14 2.17 2.07 1.93 1.83 1.81 1.74 1.43 1.25 1.18 1.31 1.39 1.48 1.47 1.44 1.37 1.32 1.18 1.14 1.21 1.21 1.21 1.26 1.27 1.26 1.25 1.35 1.65 1.96 1.96 2.03 2.16 1.96 1.73 1.39 1.32 1.25 1.19 1.17 1.02 0.91 0.93 0.95